Volver al catálogo

CZ-3B DEB

LostGTO
NORAD 41120·DEBRIS·🇨🇳 China

Lanzado Dec 19, 2011 desde Xichang Satellite Launch Center

Loading…

TLE

ObsoletoSource: Space-Track

Época: Jul 29, 2019, 18:23 UTC

1 41120U 11077AK  19210.76630294 -.00000492  00000-0 -56385-1 0  9999
2 41120  26.8759 353.7873 7318689 272.0230  13.9514  1.88905713 29748

Sigue CZ-3B DEB en tiempo real con AllMySat

Download on the App Store